Time,TemperatureF,DewpointF,PressureIn,WindDirection,WindDirectionDegrees,WindSpeedMPH,WindSpeedGustMPH,Humidity,HourlyPrecipIn,Conditions,Clouds,dailyrainin,SoftwareType,DateUTC
2013-03-18 07:22:00,42.3,42.0,29.87,NNE,21,2.0,9.0,99,0.14,,,0.16,Wunderground v.1.15,2013-03-18 11:22:00,
2013-03-18 07:23:00,42.4,42.1,29.87,North,355,2.0,9.0,99,0.12,,,0.16,Wunderground v.1.15,2013-03-18 11:23:00,
2013-03-18 07:26:00,42.4,42.1,29.87,NNE,14,2.0,9.0,99,0.07,,,0.16,Wunderground v.1.15,2013-03-18 11:26:00,
2013-03-18 07:28:00,42.4,42.1,29.87,NE,44,2.0,9.0,99,0.06,,,0.16,Wunderground v.1.15,2013-03-18 11:28:00,
2013-03-18 07:30:00,42.4,42.1,29.88,North,360,2.0,9.0,99,0.06,,,0.17,Wunderground v.1.15,2013-03-18 11:30:00,
2013-03-18 07:32:00,42.4,42.1,29.88,NNW,346,3.0,9.0,99,0.26,,,0.18,Wunderground v.1.15,2013-03-18 11:32:00,
2013-03-18 07:36:00,41.9,41.6,29.90,North,355,6.0,14.0,99,0.19,,,0.19,Wunderground v.1.15,2013-03-18 11:36:00,
2013-03-18 07:38:00,41.5,41.2,29.90,NNW,342,8.0,14.0,99,0.15,,,0.19,Wunderground v.1.15,2013-03-18 11:38:00,
2013-03-18 07:40:00,41.1,40.8,29.90,NW,323,9.0,15.0,99,0.11,,,0.19,Wunderground v.1.15,2013-03-18 11:40:00,
2013-03-18 07:41:00,40.9,40.6,29.90,NE,53,10.0,15.0,99,0.09,,,0.19,Wunderground v.1.15,2013-03-18 11:41:00,
2013-03-18 07:44:00,40.2,39.7,29.90,North,5,11.0,13.0,98,0.08,,,0.20,Wunderground v.1.15,2013-03-18 11:44:00,
2013-03-18 07:45:00,39.9,39.4,29.90,ENE,65,10.0,13.0,98,0.08,,,0.20,Wunderground v.1.15,2013-03-18 11:45:00,
2013-03-18 07:46:00,39.8,39.3,29.90,NNE,28,9.0,13.0,98,0.08,,,0.20,Wunderground v.1.15,2013-03-18 11:46:00,
2013-03-18 07:48:00,39.2,38.7,29.90,NNE,14,9.0,14.0,98,0.08,,,0.20,Wunderground v.1.15,2013-03-18 11:48:00,
2013-03-18 07:50:00,38.6,38.1,29.91,NNW,344,9.0,14.0,98,0.09,,,0.21,Wunderground v.1.15,2013-03-18 11:50:00,
2013-03-18 07:52:00,38.1,37.3,29.92,North,355,10.0,11.0,97,0.09,,,0.21,Wunderground v.1.15,2013-03-18 11:52:00,
2013-03-18 07:54:00,37.7,36.9,29.90,NW,320,10.0,13.0,97,0.16,,,0.22,Wunderground v.1.15,2013-03-18 11:54:00,
2013-03-18 07:56:00,37.3,36.5,29.89,ENE,67,10.0,13.0,97,0.16,,,0.22,Wunderground v.1.15,2013-03-18 11:56:00,
2013-03-18 07:59:00,37.1,36.3,29.89,ENE,68,10.0,13.0,97,0.09,,,0.22,Wunderground v.1.15,2013-03-18 11:59:00,
2013-03-18 08:05:00,36.7,35.9,29.87,East,90,7.0,9.0,97,0.06,,,0.23,Wunderground v.1.15,2013-03-18 12:05:00,
2013-03-18 08:06:00,36.7,35.9,29.87,ENE,76,6.0,9.0,97,0.06,,,0.23,Wunderground v.1.15,2013-03-18 12:06:00,
2013-03-18 08:09:00,36.7,35.9,29.88,ENE,61,5.0,9.0,97,0.16,,,0.24,Wunderground v.1.15,2013-03-18 12:09:00,
2013-03-18 08:11:00,36.7,35.9,29.89,ENE,59,4.0,9.0,97,0.14,,,0.24,Wunderground v.1.15,2013-03-18 12:11:00,
2013-03-18 08:12:00,36.7,35.9,29.90,WNW,290,4.0,9.0,97,0.12,,,0.24,Wunderground v.1.15,2013-03-18 12:12:00,
2013-03-18 08:15:00,36.8,36.0,29.90,NE,49,2.0,9.0,97,0.33,,,0.26,Wunderground v.1.15,2013-03-18 12:15:00,
2013-03-18 08:17:00,36.9,36.4,29.90,NE,49,1.0,9.0,98,0.43,,,0.28,Wunderground v.1.15,2013-03-18 12:17:00,
2013-03-18 08:18:00,36.9,36.4,29.90,NE,49,1.0,9.0,98,0.55,,,0.29,Wunderground v.1.15,2013-03-18 12:18:00,
2013-03-18 08:21:00,37.1,36.6,29.89,ESE,119,0.0,9.0,98,0.33,,,0.31,Wunderground v.1.15,2013-03-18 12:21:00,
2013-03-18 08:22:00,37.1,36.6,29.89,ESE,119,0.0,9.0,98,0.56,,,0.32,Wunderground v.1.15,2013-03-18 12:22:00,
2013-03-18 08:23:00,37.1,36.6,29.89,ESE,120,0.0,9.0,98,0.34,,,0.32,Wunderground v.1.15,2013-03-18 12:23:00,
2013-03-18 08:26:00,37.1,36.6,29.89,SE,144,0.0,9.0,98,0.40,,,0.34,Wunderground v.1.15,2013-03-18 12:26:00,
2013-03-18 08:28:00,37.2,36.7,29.89,SE,139,0.0,9.0,98,0.24,,,0.34,Wunderground v.1.15,2013-03-18 12:28:00,
2013-03-18 08:30:00,37.2,36.7,29.89,SE,143,0.0,9.0,98,0.20,,,0.35,Wunderground v.1.15,2013-03-18 12:30:00,
2013-03-18 08:33:00,37.2,36.7,29.89,ESE,123,0.0,9.0,98,0.25,,,0.36,Wunderground v.1.15,2013-03-18 12:33:00,
2013-03-18 08:34:00,37.2,36.7,29.89,ESE,121,0.0,9.0,98,0.19,,,0.36,Wunderground v.1.15,2013-03-18 12:34:00,
2013-03-18 08:35:00,37.2,36.7,29.89,ESE,121,0.0,9.0,98,0.16,,,0.36,Wunderground v.1.15,2013-03-18 12:35:00,
2013-03-18 08:38:00,37.2,36.7,29.89,SSE,147,0.0,9.0,98,0.26,,,0.37,Wunderground v.1.15,2013-03-18 12:38:00,
2013-03-18 08:40:00,37.3,36.8,29.89,ESE,105,0.0,9.0,98,0.26,,,0.38,Wunderground v.1.15,2013-03-18 12:40:00,
2013-03-18 08:42:00,37.3,36.8,29.89,SE,133,0.0,9.0,98,0.22,,,0.39,Wunderground v.1.15,2013-03-18 12:42:00,
2013-03-18 08:44:00,37.3,36.8,29.89,SE,138,0.0,9.0,98,0.24,,,0.40,Wunderground v.1.15,2013-03-18 12:44:00,
2013-03-18 08:47:00,37.3,36.8,29.90,SE,132,0.0,9.0,98,0.18,,,0.41,Wunderground v.1.15,2013-03-18 12:47:00,
2013-03-18 08:49:00,37.3,36.8,29.89,SE,144,0.0,9.0,98,0.28,,,0.41,Wunderground v.1.15,2013-03-18 12:49:00,
2013-03-18 08:50:00,37.3,36.8,29.89,SE,142,0.0,9.0,98,0.28,,,0.42,Wunderground v.1.15,2013-03-18 12:50:00,
2013-03-18 08:51:00,37.4,36.9,29.89,SSE,152,0.0,9.0,98,0.27,,,0.42,Wunderground v.1.15,2013-03-18 12:51:00,
2013-03-18 08:53:00,37.4,36.9,29.89,SE,133,0.0,9.0,98,0.37,,,0.44,Wunderground v.1.15,2013-03-18 12:53:00,
2013-03-18 08:56:00,37.4,36.9,29.89,SE,130,0.0,9.0,98,0.28,,,0.45,Wunderground v.1.15,2013-03-18 12:56:00,
2013-03-18 09:00:00,37.5,37.0,29.89,SE,145,0.0,9.0,98,0.22,,,0.47,Wunderground v.1.15,2013-03-18 13:00:00,
2013-03-18 09:02:00,37.5,37.0,29.89,SE,132,0.0,9.0,98,0.36,,,0.48,Wunderground v.1.15,2013-03-18 13:02:00,
2013-03-18 09:03:00,37.6,37.1,29.89,SE,133,0.0,9.0,98,0.30,,,0.48,Wunderground v.1.15,2013-03-18 13:03:00,
2013-03-18 09:06:00,37.7,37.2,29.89,SE,137,0.0,9.0,98,0.42,,,0.50,Wunderground v.1.15,2013-03-18 13:06:00,
2013-03-18 09:09:00,37.8,37.3,29.90,South,174,0.0,9.0,98,0.24,,,0.51,Wunderground v.1.15,2013-03-18 13:09:00,
2013-03-18 09:11:00,37.8,37.3,29.90,SSE,150,0.0,9.0,98,0.33,,,0.52,Wunderground v.1.15,2013-03-18 13:11:00,
2013-03-18 09:15:00,37.9,37.4,29.90,SE,138,0.0,9.0,98,0.30,,,0.54,Wunderground v.1.15,2013-03-18 13:15:00,
2013-03-18 09:17:00,37.9,37.4,29.90,SE,128,0.0,9.0,98,0.30,,,0.55,Wunderground v.1.15,2013-03-18 13:17:00,
2013-03-18 09:19:00,38.0,37.5,29.89,SE,126,0.0,9.0,98,0.30,,,0.56,Wunderground v.1.15,2013-03-18 13:19:00,
2013-03-18 09:21:00,38.0,37.5,29.89,SE,126,0.0,9.0,98,0.43,,,0.58,Wunderground v.1.15,2013-03-18 13:21:00,
2013-03-18 09:23:00,38.1,37.6,29.89,SE,125,0.0,9.0,98,0.28,,,0.58,Wunderground v.1.15,2013-03-18 13:23:00,
2013-03-18 09:25:00,38.2,37.7,29.88,ESE,123,0.0,9.0,98,0.35,,,0.60,Wunderground v.1.15,2013-03-18 13:25:00,
2013-03-18 09:27:00,38.2,37.7,29.88,SE,136,0.0,9.0,98,0.31,,,0.60,Wunderground v.1.15,2013-03-18 13:27:00,
2013-03-18 09:30:00,38.3,37.8,29.88,SE,137,0.0,9.0,98,0.29,,,0.62,Wunderground v.1.15,2013-03-18 13:30:00,
2013-03-18 09:31:00,38.3,37.8,29.89,SE,138,0.0,9.0,98,0.29,,,0.62,Wunderground v.1.15,2013-03-18 13:31:00,
2013-03-18 09:33:00,38.4,37.9,29.89,South,190,0.0,9.0,98,0.23,,,0.63,Wunderground v.1.15,2013-03-18 13:33:00,
2013-03-18 09:34:00,38.5,38.0,29.90,SSW,200,0.0,9.0,98,0.23,,,0.63,Wunderground v.1.15,2013-03-18 13:34:00,
2013-03-18 09:35:00,38.5,38.0,29.90,SSW,200,0.0,9.0,98,0.27,,,0.64,Wunderground v.1.15,2013-03-18 13:35:00,
2013-03-18 09:38:00,38.6,38.1,29.89,SE,126,1.0,9.0,98,0.43,,,0.65,Wunderground v.1.15,2013-03-18 13:38:00,
2013-03-18 09:40:00,38.7,38.4,29.89,South,176,1.0,1.0,99,0.35,,,0.66,Wunderground v.1.15,2013-03-18 13:40:00,
2013-03-18 09:42:00,38.8,38.3,29.88,SE,138,1.0,9.0,98,0.43,,,0.67,Wunderground v.1.15,2013-03-18 13:42:00,
2013-03-18 09:46:00,38.9,38.4,29.88,SE,142,1.0,9.0,98,0.40,,,0.70,Wunderground v.1.15,2013-03-18 13:46:00,
2013-03-18 09:47:00,38.9,38.4,29.88,SE,142,0.0,9.0,98,0.40,,,0.70,Wunderground v.1.15,2013-03-18 13:47:00,
2013-03-18 09:48:00,38.9,38.4,29.88,SE,142,0.0,9.0,98,0.25,,,0.71,Wunderground v.1.15,2013-03-18 13:48:00,
2013-03-18 09:51:00,39.0,38.5,29.87,SSE,158,0.0,9.0,98,0.35,,,0.72,Wunderground v.1.15,2013-03-18 13:51:00,
2013-03-18 09:53:00,39.1,38.6,29.87,SSE,148,0.0,9.0,98,0.39,,,0.74,Wunderground v.1.15,2013-03-18 13:53:00,
2013-03-18 09:54:00,39.1,38.6,29.87,SE,136,0.0,9.0,98,0.39,,,0.74,Wunderground v.1.15,2013-03-18 13:54:00,
2013-03-18 09:56:00,39.1,38.6,29.87,SSE,167,0.0,9.0,98,0.19,,,0.74,Wunderground v.1.15,2013-03-18 13:56:00,
2013-03-18 09:57:00,39.2,38.7,29.88,South,173,0.0,9.0,98,0.15,,,0.75,Wunderground v.1.15,2013-03-18 13:57:00,
2013-03-18 10:00:00,39.2,38.9,29.88,South,172,0.0,9.0,99,0.27,,,0.76,Wunderground v.1.15,2013-03-18 14:00:00,
2013-03-18 10:02:00,39.3,39.0,29.87,South,172,0.0,9.0,99,0.19,,,0.76,Wunderground v.1.15,2013-03-18 14:02:00,
2013-03-18 10:03:00,39.3,39.0,29.88,South,172,0.0,9.0,99,0.18,,,0.77,Wunderground v.1.15,2013-03-18 14:03:00,
2013-03-18 10:04:00,39.3,39.0,29.88,South,172,0.0,9.0,99,0.18,,,0.77,Wunderground v.1.15,2013-03-18 14:04:00,
2013-03-18 10:09:00,39.5,39.2,29.87,South,172,0.0,9.0,99,0.47,,,0.80,Wunderground v.1.15,2013-03-18 14:09:00,
2013-03-18 10:10:00,39.5,39.2,29.87,South,172,0.0,9.0,99,0.33,,,0.80,Wunderground v.1.15,2013-03-18 14:10:00,
2013-03-18 10:11:00,39.6,39.3,29.87,SSE,165,0.0,9.0,99,0.31,,,0.81,Wunderground v.1.15,2013-03-18 14:11:00,
2013-03-18 10:12:00,39.6,39.3,29.87,SSW,212,0.0,9.0,99,0.42,,,0.82,Wunderground v.1.15,2013-03-18 14:12:00,
2013-03-18 10:17:00,40.1,39.8,29.87,SSW,193,1.0,9.0,99,0.29,,,0.84,Wunderground v.1.15,2013-03-18 14:17:00,
2013-03-18 10:18:00,40.2,39.9,29.88,SSW,194,1.0,9.0,99,0.29,,,0.85,Wunderground v.1.15,2013-03-18 14:18:00,
2013-03-18 10:19:00,40.2,39.9,29.88,SSE,155,2.0,9.0,99,0.36,,,0.86,Wunderground v.1.15,2013-03-18 14:19:00,
2013-03-18 10:20:00,40.3,40.0,29.88,South,182,2.0,9.0,99,0.36,,,0.86,Wunderground v.1.15,2013-03-18 14:20:00,
2013-03-18 10:24:00,40.5,40.2,29.87,SSE,164,3.0,9.0,99,0.31,,,0.88,Wunderground v.1.15,2013-03-18 14:24:00,
2013-03-18 10:25:00,40.5,40.2,29.86,SSE,167,2.0,9.0,99,0.24,,,0.88,Wunderground v.1.15,2013-03-18 14:25:00,
2013-03-18 10:26:00,40.5,40.2,29.86,South,174,2.0,9.0,99,0.20,,,0.89,Wunderground v.1.15,2013-03-18 14:26:00,
2013-03-18 10:27:00,40.6,40.3,29.86,South,173,2.0,9.0,99,0.60,,,0.90,Wunderground v.1.15,2013-03-18 14:27:00,
2013-03-18 10:29:00,40.6,40.3,29.85,South,173,1.0,9.0,99,0.42,,,0.91,Wunderground v.1.15,2013-03-18 14:29:00,
2013-03-18 10:30:00,40.7,40.4,29.86,SSE,159,1.0,1.0,99,0.45,,,0.92,Wunderground v.1.15,2013-03-18 14:30:00,
2013-03-18 10:34:00,40.9,40.6,29.86,South,182,0.0,9.0,99,0.29,,,0.94,Wunderground v.1.15,2013-03-18 14:34:00,
2013-03-18 10:38:00,41.0,40.7,29.87,SSW,201,1.0,9.0,99,0.23,,,0.96,Wunderground v.1.15,2013-03-18 14:38:00,
2013-03-18 10:39:00,41.0,40.7,29.87,SSE,151,1.0,9.0,99,0.23,,,0.96,Wunderground v.1.15,2013-03-18 14:39:00,
2013-03-18 10:40:00,41.0,40.7,29.86,ESE,114,1.0,1.0,99,0.19,,,0.96,Wunderground v.1.15,2013-03-18 14:40:00,
2013-03-18 10:43:00,41.0,40.7,29.86,South,171,1.0,9.0,99,0.30,,,0.98,Wunderground v.1.15,2013-03-18 14:43:00,
2013-03-18 10:45:00,41.1,40.8,29.86,WSW,239,2.0,9.0,99,0.21,,,0.98,Wunderground v.1.15,2013-03-18 14:45:00,
2013-03-18 10:48:00,41.2,40.9,29.87,SSW,197,1.0,9.0,99,0.26,,,1.00,Wunderground v.1.15,2013-03-18 14:48:00,
2013-03-18 10:50:00,41.3,41.0,29.87,South,180,1.0,1.0,99,0.26,,,1.00,Wunderground v.1.15,2013-03-18 14:50:00,
2013-03-18 10:51:00,41.3,41.0,29.88,South,187,1.0,9.0,99,0.19,,,1.00,Wunderground v.1.15,2013-03-18 14:51:00,
2013-03-18 10:56:00,41.5,41.2,29.89,West,259,1.0,9.0,99,0.18,,,1.02,Wunderground v.1.15,2013-03-18 14:56:00,
2013-03-18 10:57:00,41.5,41.2,29.89,SW,227,1.0,9.0,99,0.18,,,1.02,Wunderground v.1.15,2013-03-18 14:57:00,
2013-03-18 11:00:00,41.6,41.3,29.88,SSE,161,2.0,9.0,99,0.30,,,1.04,Wunderground v.1.15,2013-03-18 15:00:00,
2013-03-18 11:02:00,41.7,41.4,29.88,South,187,2.0,9.0,99,0.25,,,1.04,Wunderground v.1.15,2013-03-18 15:02:00,
2013-03-18 11:03:00,41.8,41.5,29.88,SSW,203,2.0,9.0,99,0.25,,,1.05,Wunderground v.1.15,2013-03-18 15:03:00,
2013-03-18 11:04:00,41.8,41.5,29.88,SW,221,2.0,9.0,99,0.30,,,1.06,Wunderground v.1.15,2013-03-18 15:04:00,
2013-03-18 11:07:00,42.1,41.8,29.88,SSW,213,3.0,9.0,99,0.27,,,1.07,Wunderground v.1.15,2013-03-18 15:07:00,
2013-03-18 11:09:00,42.4,42.1,29.88,South,191,3.0,9.0,99,0.34,,,1.08,Wunderground v.1.15,2013-03-18 15:09:00,
2013-03-18 11:13:00,42.8,42.5,29.88,SW,217,2.0,9.0,99,0.18,,,1.09,Wunderground v.1.15,2013-03-18 15:13:00,
2013-03-18 11:15:00,42.9,42.6,29.88,South,184,2.0,9.0,99,0.26,,,1.10,Wunderground v.1.15,2013-03-18 15:15:00,
2013-03-18 11:16:00,42.9,42.6,29.88,South,189,2.0,9.0,99,0.26,,,1.10,Wunderground v.1.15,2013-03-18 15:16:00,
2013-03-18 11:19:00,42.9,42.6,29.88,SW,225,3.0,9.0,99,0.17,,,1.11,Wunderground v.1.15,2013-03-18 15:19:00,
2013-03-18 11:20:00,42.9,42.6,29.88,SW,222,3.0,10.0,99,0.23,,,1.12,Wunderground v.1.15,2013-03-18 15:20:00,
2013-03-18 11:25:00,43.1,42.8,29.89,South,174,4.0,10.0,99,0.26,,,1.14,Wunderground v.1.15,2013-03-18 15:25:00,
2013-03-18 11:26:00,43.2,42.9,29.89,SSW,209,5.0,10.0,99,0.26,,,1.14,Wunderground v.1.15,2013-03-18 15:26:00,
2013-03-18 11:29:00,43.4,43.1,29.88,South,186,5.0,10.0,99,0.17,,,1.15,Wunderground v.1.15,2013-03-18 15:29:00,
2013-03-18 11:31:00,43.6,43.3,29.88,SSW,211,5.0,7.0,99,0.17,,,1.15,Wunderground v.1.15,2013-03-18 15:31:00,
2013-03-18 11:32:00,43.8,43.5,29.88,SSW,193,5.0,9.0,99,0.24,,,1.16,Wunderground v.1.15,2013-03-18 15:32:00,